This demonstration page uses our WeatherBlox Daily Observations layout. Learn more.

Left ArrowRight Arrow

41.86663, -103.66717

Hourly Observations for May 14, 2021

Temp ( °F °C ) Dew Point ( °F °C ) Humidity (%) Winds ( mph kmh ) Pressure ( in mb ) Visibility ( mi km ) Precip ( " mm )
12:53 am 00:53 Clear 46 7.8 42 5.6 86 86 NNW 5 7 30.07 1018 10 16.0934 N/A
1:53 am 01:53 Clear 44 6.7 41 5 89 89 NNW 6 9 30.06 1018 10 16.0934 N/A
2:53 am 02:53 Clear 43 6.1 40 4.4 89 89 NNW 5 7 30.05 1018 10 16.0934 N/A
3:53 am 03:53 Clear 42 5.6 39 3.9 89 89 NW 7 11 30.05 1018 10 16.0934 N/A
4:53 am 04:53 Clear 42 5.6 39 3.9 89 89 NW 8 13 30.04 1017 9 14.48406 N/A
5:53 am 05:53 Sunny 42 5.6 39 3.9 89 89 NW 8 13 30.03 1017 8 12.87472 N/A
6:53 am 06:53 Sunny 45 7.2 42 5.6 90 90 NW 6 9 30.05 1018 10 16.0934 N/A
7:53 am 07:53 Sunny 50 10 45 7.2 83 83 WNW 9 15 30.07 1018 10 16.0934 N/A
8:53 am 08:53 Sunny 57 13.9 45 7.2 64 64 NW 6 9 30.07 1018 10 16.0934 N/A
9:53 am 09:53 Sunny 61 16.1 45 7.2 56 56 N N/A 30.06 1018 10 16.0934 N/A
10:53 am 10:53 Mostly Sunny 66 18.9 42 5.6 42 42 VRB 3 6 30.05 1018 10 16.0934 N/A
11:53 am 11:53 Mostly Cloudy 66 18.9 40 4.4 39 39 E 6 9 30.03 1017 10 16.0934 N/A
12:53 pm 12:53 Mostly Sunny 69 20.6 40 4.4 35 35 undefined N/A 30.02 1017 10 16.0934 N/A
1:53 pm 13:53 Sunny 71 21.7 40 4.4 32 32 E 14 22 30.01 1016 10 16.0934 N/A
2:53 pm 14:53 Mostly Sunny 70 21.1 39 3.9 32 32 E 18 30 29.99 1016 10 16.0934 N/A
3:53 pm 15:53 Cloudy 67 19.4 39 3.9 36 36 ENE 8 13 30 1016 10 16.0934 N/A
4:53 pm 16:53 Cloudy with Rain 58 14.4 48 8.9 70 70 N 14 22 30.05 1018 5 8.0467 0.04 1.016
5:53 pm 17:53 Mostly Sunny 61 16.1 49 9.4 65 65 ENE 10 17 30.02 1017 10 16.0934 0.02 0.508
6:53 pm 18:53 Partly Cloudy 60 15.6 48 8.9 65 65 SE 5 7 30.02 1017 10 16.0934 N/A
7:53 pm 19:53 Mostly Cloudy 58 14.4 51 10.6 78 78 SW 5 7 30.03 1017 10 16.0934 N/A
8:53 pm 20:53 Cloudy 56 13.3 50 10 81 81 N 5 7 30.03 1017 10 16.0934 0.01 0.254
9:53 pm 21:53 Cloudy with Light Rain 55 12.8 51 10.6 87 87 ENE 3 6 30.02 1017 10 16.0934 0.001 0.001
10:53 pm 22:53 Cloudy 54 12.2 50 10 87 87 N N/A 30.01 1016 10 16.0934 0.001 0.001
11:53 pm 23:53 Mostly Clear 53 11.7 49 9.4 86 86 N N/A 30 1016 10 16.0934 N/A

Powered by AerisWeather